FW8448 Weather Reports


time (UTC)temp
C
wind
direction
speed
KPH
gust
KPH
rain 1hr
cm
rain 24hr
cm
rain mn
cm
humidity
%
barometer
mb
20260509043053 12 219 3.2 12.9 0.20 1.19 0.13 96 1009.1
20260509041555 12 218 0.0 14.5 0.20 1.12 0.05 96 1009.1
20260509040053 12 223 3.2 11.3 0.23 1.07 0.00 96 1009.1
20260509034552 12 209 3.2 16.1 0.23 1.02 1.02 96 1009.3
20260509033100 12 172 1.6 11.3 0.25 0.97 0.97 96 1009.4
20260509031555 12 229 3.2 14.5 0.25 0.91 0.91 96 1009.6
20260509030056 12 261 3.2 14.5 0.25 0.84 0.84 96 1009.9
20260509024553 12 200 6.4 17.7 0.23 0.79 0.79 96 1009.7
20260509023103 12 207 3.2 17.7 0.20 0.71 0.71 96 1009.7
20260509021554 12 180 1.6 14.5 0.15 0.66 0.66 96 1009.8
20260509020053 12 229 3.2 12.9 0.10 0.58 0.58 96 1010.0
20260509014551 12 217 1.6 14.5 0.10 0.56 0.56 96 1009.6
20260509013057 12 207 1.6 8.0 0.13 0.51 0.51 96 1009.6
20260509011601 12 198 1.6 6.4 0.15 0.51 0.51 95 1009.4
20260509010051 12 0 1.6 8.0 0.15 0.48 0.48 95 1009.5
20260509004549 12 0 0.0 4.8 0.18 0.43 0.43 95 1009.6
20260509003056 12 0 1.6 4.8 0.15 0.38 0.38 95 1009.4
20260509001554 12 0 1.6 8.0 0.15 0.33 0.33 94 1009.3
20260509000052 12 213 1.6 14.5 0.25 0.33 0.33 94 1009.3
20260508234550 12 279 3.2 9.7 0.20 0.25 0.25 94 1009.7
20260508233112 12 250 1.6 6.4 0.20 0.23 0.23 93 1009.6
20260508231558 12 0 0.0 6.4 0.18 0.18 0.18 92 1009.6
20260508230056 13 0 0.0 1.6 0.08 0.08 0.08 91 1010.0
20260508224634 13 0 0.0 1.6 0.05 0.05 0.05 90 1009.9
20260508223052 13 0 0.0 4.8 0.03 0.03 0.03 88 1009.9
20260508221551 14 271 1.6 33.8 0.00 0.00 0.00 82 1010.0
20260508220048 16 227 14.5 27.4 0.00 0.00 0.00 72 1009.5
20260508214546 16 221 3.2 8.0 0.00 0.00 0.00 70 1008.9
20260508213052 17 0 0.0 3.2 0.00 0.00 0.00 71 1008.9
20260508211549 17 0 0.0 3.2 0.00 0.00 0.00 70 1008.9
20260508210050 17 0 0.0 9.7 0.00 0.00 0.00 68 1008.9
20260508204554 17 0 1.6 8.0 0.00 0.00 0.00 66 1009.3
20260508203055 17 254 0.0 4.8 0.00 0.00 0.00 67 1009.4
20260508201551 17 258 3.2 8.0 0.00 0.00 0.00 64 1009.7
20260508200105 16 227 0.0 4.8 0.00 0.00 0.00 66 1010.0
20260508194555 16 244 3.2 9.7 0.00 0.00 0.00 65 1010.2
20260508193056 16 290 3.2 9.7 0.00 0.00 0.00 65 1010.3
20260508191556 17 227 6.4 16.1 0.00 0.00 0.00 63 1010.5
20260508190058 16 190 6.4 19.3 0.00 0.00 0.00 62 1010.6
20260508184555 17 233 4.8 19.3 0.00 0.00 0.00 63 1010.9
20260508183053 17 292 4.8 11.3 0.00 0.00 0.00 63 1010.9
20260508181556 17 249 4.8 25.7 0.00 0.00 0.00 64 1010.9
20260508180058 17 214 8.0 19.3 0.00 0.00 0.00 62 1011.0
20260508174609 18 209 8.0 17.7 0.00 0.00 0.00 60 1011.1
20260508173050 18 237 6.4 19.3 0.00 0.00 0.00 63 1011.4
20260508171554 17 205 6.4 19.3 0.00 0.00 0.00 64 1011.7
20260508170052 16 175 4.8 19.3 0.00 0.00 0.00 65 1012.0
20260508164551 17 206 4.8 19.3 0.00 0.00 0.00 64 1012.2
20260508163053 17 234 6.4 20.9 0.00 0.00 0.00 63 1012.4
20260508161551 16 217 6.4 14.5 0.00 0.00 0.00 66 1012.4
20260508160055 17 255 16.1 27.4 0.00 0.00 0.00 61 1012.6
20260508154558 17 222 11.3 27.4 0.00 0.00 0.00 63 1012.8
20260508153053 17 254 14.5 29.0 0.00 0.00 0.00 63 1012.7
20260508151554 16 237 9.7 25.7 0.00 0.00 0.00 65 1012.8
20260508150050 16 263 16.1 25.7 0.00 0.00 0.00 65 1012.7
20260508144552 15 255 9.7 24.1 0.00 0.00 0.00 66 1012.9
20260508143058 15 284 14.5 29.0 0.00 0.00 0.00 66 1013.2
20260508141555 14 250 11.3 30.6 0.00 0.00 0.00 68 1013.2
20260508140059 13 198 8.0 22.5 0.00 0.00 0.00 68 1013.3
20260508134555 13 221 6.4 19.3 0.00 0.00 0.00 69 1013.5
20260508133057 12 246 6.4 19.3 0.00 0.00 0.00 71 1013.5
20260508131552 12 260 8.0 20.9 0.00 0.00 0.00 70 1013.6
20260508124555 11 244 3.2 11.3 0.00 0.00 0.00 75 1013.7
20260508123057 10 263 3.2 11.3 0.00 0.00 0.00 76 1013.6
20260508121557 10 0 1.6 6.4 0.00 0.00 0.00 78 1013.6
20260508120056 10 219 0.0 4.8 0.00 0.00 0.00 79 1013.6
20260508114552 8 0 0.0 4.8 0.00 0.03 0.00 82 1013.4
20260508113107 7 0 1.6 4.8 0.00 0.03 0.00 84 1013.3
20260508111551 7 0 0.0 6.4 0.00 0.03 0.00 82 1013.0
20260508110051 7 216 0.0 8.0 0.00 0.03 0.00 81 1013.0
20260508104555 7 203 0.0 6.4 0.00 0.03 0.00 80 1012.9
20260508103052 7 203 0.0 12.9 0.00 0.03 0.00 79 1012.8
20260508101554 7 166 0.0 8.0 0.00 0.03 0.00 80 1012.7
20260508100055 7 0 0.0 1.6 0.00 0.03 0.00 79 1012.8
20260508094558 8 215 0.0 4.8 0.00 0.03 0.00 77 1012.9
20260508093056 8 216 0.0 3.2 0.00 0.03 0.00 76 1012.9
20260508091601 8 0 0.0 4.8 0.00 0.03 0.00 77 1013.1
20260508090104 8 0 0.0 4.8 0.00 0.03 0.00 77 1013.2
20260508084554 8 0 0.0 4.8 0.00 0.03 0.00 77 1013.2
20260508083050 8 0 0.0 6.4 0.00 0.03 0.00 77 1013.3
20260508081606 8 0 0.0 0.0 0.00 0.03 0.00 75 1013.2
20260508080054 8 0 0.0 3.2 0.00 0.03 0.00 74 1013.2
20260508074551 9 0 0.0 8.0 0.00 0.03 0.00 74 1013.2
20260508073105 9 0 1.6 6.4 0.00 0.03 0.00 74 1013.1
20260508071604 9 213 1.6 9.7 0.00 0.03 0.00 75 1013.2
20260508070100 9 218 1.6 12.9 0.00 0.03 0.00 77 1013.6
20260508064554 10 229 3.2 9.7 0.00 0.03 0.00 74 1013.6
20260508063053 10 229 1.6 9.7 0.00 0.03 0.00 72 1013.6
20260508061552 9 213 1.6 8.0 0.00 0.03 0.00 72 1013.5
20260508060055 9 225 0.0 4.8 0.00 0.03 0.00 71 1013.6
20260508054551 9 220 1.6 9.7 0.00 0.03 0.00 70 1013.6
20260508053053 10 190 3.2 9.7 0.00 0.03 0.00 69 1013.6
20260508051548 10 184 1.6 4.8 0.00 0.03 0.00 71 1013.7
20260508050050 9 223 1.6 8.0 0.00 0.03 0.00 72 1013.7
20260508044558 8 196 1.6 6.4 0.00 0.03 0.00 76 1013.7